Farmville, VA

11:22 AM EST on January 22, 2018 (GMT -0500)
Farmville Regional

Weather History for KFVX - November, 2011

Change the Weather History Date:

Wednesday, November 9, 2011

  Actual Average Record
Temperature  
Mean Temperature 50 °F -  
Max Temperature 69 °F 62 °F 82 °F (1975)
Min Temperature 32 °F 36 °F 18 °F (1976)
Degree Days  
Heating Degree Days 14    
Moisture  
Dew Point 40 °F    
Average Humidity 77    
Maximum Humidity 100    
Minimum Humidity 28    
Precipitation  
Precipitation 0.00 in - - ()
Sea Level Pressure  
Sea Level Pressure 30.10 in    
Wind  
Wind Speed 1 mph (South)    
Max Wind Speed 9 mph    
Max Gust Speed -    
Visibility 9 miles    
Events      
Averages and records for this station are not official NWS values.
T = Trace of Precipitation, MM = Missing Value Source: NWS Daily Summary

Daily Weather History Graph

Daily Weather History Graph

Search for Another Location

Airport or City:

Trip Planner

Search our weather history database for the weather conditions in past years. The results will help you decide how hot, cold, wet, or windy it might be!

Date:

Astronomy

Nov. 09, 2011 Rise Set
Actual Time 6:46 AM EST 5:08 PM EST
Civil Twilight 6:18 AM EST 5:35 PM EST
Nautical Twilight 5:47 AM EST 6:06 PM EST
Astronomical Twilight 5:17 AM EST 6:37 PM EST
Moon 4:19 PM EST (11/9) 5:40 AM EST (11/9)
Length of Visible Light 11h 16m
Length of Day
10h 21m
Waxing Gibbous, 99% of the Moon is Illuminated
Nov 9
Waxing Gibbous
Nov 10
Full
Nov 18
Last Quarter
Nov 25
New
Dec 2
First Quarter

Hourly Weather History & Observations

Time (EST) Temp. Dew Point Humidity Pressure Visibility Wind Dir Wind Speed Gust Speed Precip Events Conditions
12:15 AM 39.2 °F 37.4 °F 93% 30.19 in 1.2 mi Calm Calm - N/A   Mist
12:35 AM 39.2 °F 37.4 °F 93% 30.18 in 1.8 mi Calm Calm - N/A   Mist
12:55 AM 37.4 °F 37.4 °F 100% 30.18 in 10.0 mi Calm Calm - N/A   Clear
1:15 AM 37.4 °F 37.4 °F 100% 30.18 in 10.0 mi Calm Calm - N/A   Clear
1:35 AM 37.4 °F 37.4 °F 100% 30.18 in 10.0 mi Calm Calm - N/A   Clear
1:55 AM 35.6 °F 35.6 °F 100% 30.18 in 7.0 mi Calm Calm - N/A   Clear
2:15 AM 37.4 °F 35.6 °F 93% 30.18 in 10.0 mi Calm Calm - N/A   Clear
2:35 AM 35.6 °F 35.6 °F 100% 30.17 in 7.0 mi Calm Calm - N/A   Clear
2:55 AM 35.6 °F 35.6 °F 100% 30.17 in 3.0 mi Calm Calm - N/A   Clear
3:15 AM 35.6 °F 35.6 °F 100% 30.17 in 5.0 mi Calm Calm - N/A   Clear
3:35 AM 35.6 °F 33.8 °F 93% 30.16 in 10.0 mi Calm Calm - N/A   Clear
3:55 AM 35.6 °F 33.8 °F 93% 30.17 in 4.0 mi Calm Calm - N/A   Clear
4:15 AM 35.6 °F 33.8 °F 93% 30.16 in 4.0 mi Calm Calm - N/A   Clear
4:35 AM 33.8 °F 33.8 °F 100% 30.16 in 4.0 mi Calm Calm - N/A   Clear
4:55 AM 33.8 °F 33.8 °F 100% 30.16 in 5.0 mi Calm Calm - N/A   Clear
5:15 AM 33.8 °F 32.0 °F 93% 30.16 in 7.0 mi Calm Calm - N/A   Clear
5:35 AM 33.8 °F 32.0 °F 93% 30.16 in 10.0 mi Calm Calm - N/A   Clear
5:55 AM 33.8 °F 33.8 °F 100% 30.15 in 7.0 mi Calm Calm - N/A   Clear
6:15 AM 33.8 °F 32.0 °F 93% 30.15 in 10.0 mi Calm Calm - N/A   Clear
6:35 AM 32.0 °F 30.2 °F 93% 30.15 in 4.0 mi Calm Calm - N/A   Clear
6:55 AM - - N/A% - - North - - N/A   Unknown
7:15 AM 33.8 °F 32.0 °F 93% 30.16 in - Calm Calm - N/A   Unknown
7:35 AM 33.8 °F 33.8 °F 100% 30.16 in 10.0 mi Calm Calm - N/A   Clear
7:55 AM 35.6 °F 35.6 °F 100% 30.17 in 10.0 mi Calm Calm - N/A   Clear
8:15 AM 39.2 °F 37.4 °F 93% 30.17 in 10.0 mi Calm Calm - N/A   Clear
8:35 AM 42.8 °F 41.0 °F 93% 30.18 in 10.0 mi Calm Calm - N/A   Clear
8:55 AM 44.6 °F 44.6 °F 100% 30.17 in 10.0 mi Calm Calm - N/A   Clear
9:15 AM 48.2 °F 46.4 °F 93% 30.17 in 10.0 mi Calm Calm - N/A   Clear
9:35 AM 51.8 °F 48.2 °F 88% 30.16 in 10.0 mi Calm Calm - N/A   Clear
9:55 AM 55.4 °F 44.6 °F 67% 30.16 in 10.0 mi SSW 3.5 mph - N/A   Clear
10:15 AM 57.2 °F 44.6 °F 63% 30.16 in 10.0 mi SSE 3.5 mph - N/A   Clear
10:35 AM 59.0 °F 44.6 °F 59% 30.15 in 10.0 mi Calm Calm - N/A   Clear
10:55 AM 62.6 °F 42.8 °F 48% 30.14 in 10.0 mi Calm Calm - N/A   Clear
11:35 AM 64.4 °F 39.2 °F 40% 30.12 in 10.0 mi SSW 3.5 mph - N/A   Clear
11:55 AM 64.4 °F 39.2 °F 40% 30.10 in 10.0 mi South 4.6 mph - N/A   Clear
12:15 PM 66.2 °F 39.2 °F 37% 30.10 in 10.0 mi South 5.8 mph - N/A   Clear
12:35 PM 66.2 °F 37.4 °F 35% 30.09 in 10.0 mi SSW 4.6 mph - N/A   Clear
1:15 PM 66.2 °F 37.4 °F 35% 30.06 in 10.0 mi SSW 3.5 mph - N/A   Clear
1:35 PM 68.0 °F 37.4 °F 33% 30.05 in 10.0 mi SSE 4.6 mph - N/A   Clear
2:15 PM 69.8 °F 35.6 °F 28% 30.03 in 10.0 mi SSE 9.2 mph - N/A   Clear
2:35 PM 69.8 °F 37.4 °F 31% 30.03 in 10.0 mi South 4.6 mph - N/A   Clear
2:55 PM 68.0 °F 37.4 °F 33% 30.02 in 10.0 mi South 4.6 mph - N/A   Clear
3:15 PM 69.8 °F 39.2 °F 33% 30.01 in 10.0 mi South 5.8 mph - N/A   Clear
3:35 PM 69.8 °F 39.2 °F 33% 30.01 in 10.0 mi South 4.6 mph - N/A   Clear
3:55 PM 69.8 °F 41.0 °F 35% 30.01 in 10.0 mi South 4.6 mph - N/A   Clear
4:15 PM 66.2 °F 42.8 °F 43% 30.00 in 10.0 mi South 4.6 mph - N/A   Clear
4:35 PM 66.2 °F 44.6 °F 46% 30.00 in 10.0 mi South 4.6 mph - N/A   Clear
4:55 PM 62.6 °F 44.6 °F 52% 30.00 in 10.0 mi Calm Calm - N/A   Clear
5:15 PM 62.6 °F 44.6 °F 52% 30.00 in 10.0 mi Calm Calm - N/A   Clear
5:35 PM 60.8 °F 46.4 °F 59% 30.00 in 10.0 mi Calm Calm - N/A   Clear
6:15 PM 57.2 °F 46.4 °F 67% 30.00 in 10.0 mi Calm Calm - N/A   Clear
6:55 PM 53.6 °F 51.8 °F 94% 30.00 in 10.0 mi Calm Calm - N/A   Clear
7:15 PM 55.4 °F 50.0 °F 82% 30.00 in 10.0 mi Calm Calm - N/A   Clear
7:35 PM 51.8 °F 51.8 °F 100% 29.99 in 10.0 mi Calm Calm - N/A   Clear
7:55 PM 53.6 °F 51.8 °F 94% 29.99 in 10.0 mi Calm Calm - N/A   Clear
8:15 PM 51.8 °F 50.0 °F 94% 29.99 in 10.0 mi Calm Calm - N/A   Mostly Cloudy
8:35 PM 51.8 °F 51.8 °F 100% 29.99 in 10.0 mi Calm Calm - N/A   Mostly Cloudy
8:55 PM 51.8 °F 50.0 °F 94% 29.99 in 10.0 mi Calm Calm - N/A   Mostly Cloudy
9:15 PM 50.0 °F 48.2 °F 94% 29.98 in 10.0 mi Calm Calm - N/A   Scattered Clouds
9:35 PM 50.0 °F 48.2 °F 94% 29.99 in 10.0 mi Calm Calm - N/A   Scattered Clouds
9:55 PM 50.0 °F 48.2 °F 94% 29.99 in 10.0 mi Calm Calm - N/A   Mostly Cloudy
10:15 PM 48.2 °F 48.2 °F 100% 29.99 in 10.0 mi Calm Calm - N/A   Overcast
10:35 PM 50.0 °F 48.2 °F 94% 29.98 in 10.0 mi Calm Calm - N/A   Mostly Cloudy
10:55 PM 48.2 °F 48.2 °F 100% 29.97 in 10.0 mi Calm Calm - N/A   Scattered Clouds
11:15 PM 48.2 °F 48.2 °F 100% 29.96 in 10.0 mi Calm Calm - N/A   Clear
11:35 PM 48.2 °F 46.4 °F 93% 29.96 in 10.0 mi Calm Calm - N/A   Clear
11:55 PM 48.2 °F 46.4 °F 93% 29.96 in 10.0 mi Calm Calm - N/A   Clear